Location: Azul
(36.7830°S, 59.8500°W)
Time: 09:07:18
(UTC-03:00)

ISS - Pass Details

Date: 04 December 2019
Orbit: 411 x 421 km, 51.6° (Epoch: 11 December)

Event Time Altitude Azimuth Distance (km) Brightness Sun altitude
Exits shadow 02:41:32 33° 149° (SSE) 736 -2.0 -25.4°
Drops below altitude 10° 02:43:38 10° 137° (SE) 1,525 0.1 -25.2°
Sets 02:45:46 0° 133° (SE) 2,394 1.3 -24.9°
